RH
97 96 96 92 88 85 85 83 82 82 80 78 74 72 71 69 68 72 70 68 75 74 79 83 80 73 88 68 66 70 63 61 71 73 68 68 71 65 86 82 82 82 80
96 97 95 93 90 91 89 87 85 86 84 84 82 78 72 67 65 66 73 66 70 77 79 82 79 69 82 74 67 72 65 60 63 76 72 72 68 64 79 87 81 72 73
97 97 94 93 93 91 91 90 88 89 90 85 85 88 82 77 71 68 70 72 71 72 78 84 78 73 85 79 74 73 65 57 61 71 75 70 69 70 80 79 83 82 76
96 97 95 92 92 90 90 91 92 93 95 92 92 93 95 92 82 74 70 75 77 76 79 83 78 81 86 76 75 74 66 63 64 73 74 76 76 74 74 82 85 84 88
96 97 92 92 90 88 89 91 92 94 94 96 95 91 95 94 93 94 83 81 83 82 83 78 77 80 90 76 76 78 73 71 69 74 79 78 82 84 81 82 84 82 85
97 93 91 93 91 88 87 91 93 94 92 94 96 96 95 93 97 96 95 94 85 86 83 80 78 87 91 83 80 85 78 78 74 74 76 79 79 80 77 80 84 88 92
95 93 91 91 90 87 88 91 93 96 96 96 96 96 95 96 98 91 88 87 86 81 82 81 78 75 92 87 90 90 88 84 73 65 72 72 76 74 75 81 82 83 81
89 92 88 89 90 85 88 90 95 96 97 97 96 96 96 95 97 93 93 93 86 86 85 80 78 90 88 89 90 91 88 84 77 66 63 64 64 67 70 72 75 76 80
82 85 83 89 88 85 86 88 90 96 96 96 96 96 96 95 94 96 93 95 98 94 96 93 94 93 92 91 89 93 90 89 88 78 71 73 76 75 69 72 83 86 91
61 68 82 86 88 85 84 87 87 88 92 96 96 97 93 96 91 96 97 99 98 93 95 94 98 99 98 94 86 89 94 90 86 85 81 78 78 77 83 68 76 85 85
42 44 55 72 85 80 83 86 89 86 84 88 95 95 96 95 95 94 96 96 97 96 95 96 94 98 100 100 97 92 90 90 94 84 78 79 72 72 75 70 71 73 81
42 39 45 52 58 62 81 86 85 84 84 85 84 86 93 95 93 96 98 98 95 96 97 95 94 96 96 98 98 99 100 98 94 92 86 81 77 77 76 74 74 72 68
41 40 44 44 45 47 81 85 84 84 83 83 83 84 84 89 91 93 96 97 96 94 94 94 92 91 92 93 96 96 94 98 99 97 94 90 85 76 79 80 77 78 78
41 41 46 47 50 49 61 70 84 80 81 84 83 86 82 79 85 90 93 95 93 93 92 93 91 90 90 90 90 92 94 95 96 98 99 95 91 93 89 89 85 86 88
38 37 49 45 53 47 53 78 82 74 67 74 79 80 83 80 75 76 80 87 94 95 88 83 85 84 89 90 90 92 92 93 95 96 96 97 96 98 98 95 90 88 88
38 37 52 51 58 44 48 48 44 53 59 60 62 65 64 65 66 70 76 78 80 78 86 89 92 93 94 93 92 94 93 92 95 94 94 96 97 98 97 98 98 98 94
50 41 50 54 62 57 55 52 52 48 55 58 61 63 63 64 66 67 72 77 80 81 86 88 91 94 94 95 95 95 95 95 94 94 95 95 96 96 97 98 97 96 97
85 58 66 69 66 62 57 56 53 54 60 63 61 63 63 65 67 69 71 72 80 82 86 90 91 91 92 94 94 95 95 94 95 95 94 95 95 96 96 96 96 98 99
84 86 89 89 86 64 61 64 65 63 64 70 72 66 61 65 68 71 74 76 86 88 88 89 90 90 91 90 91 92 92 93 94 95 95 95 95 95 95 96 96 94 95
89 65 70 90 92 90 84 80 81 85 90 80 76 75 65 65 70 71 71 76 82 87 89 88 90 90 91 91 91 91 92 89 90 91 92 92 94 96 95 95 96 96 95
86 90 72 89 94 95 94 92 92 88 91 91 89 68 68 75 73 76 77 79 84 86 88 91 91 89 88 91 92 92 92 92 91 91 92 92 93 94 92 93 94 96 96
91 91 93 95 95 95 96 96 96 96 95 95 94 78 70 81 82 80 80 83 85 88 89 90 93 95 94 95 93 93 94 95 93 93 92 92 92 92 92 92 93 93 94
83 86 92 95 94 82 92 96 97 97 97 96 95 88 88 92 92 92 89 91 92 89 91 91 96 97 95 95 94 95 96 95 96 98 95 93 92 93 94 94 95 95 95
89 90 92 94 93 94 96 97 96 81 90 95 95 90 95 96 94 94 96 96 96 95 95 95 95 97 96 96 96 95 94 94 95 98 96 95 95 95 95 94 94 95 96
93 91 94 96 91 96 92 95 96 96 93 95 95 94 96 96 96 95 96 96 98 98 98 97 97 97 98 96 96 94 92 63 74 91 96 97 98 98 98 98 98 96 96
93 91 94 96 96 96 96 96 97 97 97 96 96 96 96 96 96 96 96 96 97 97 94 94 97 97 98 98 98 87 66 66 70 66 93 98 98 97 95 98 98 98 97
Wind_Speed
4 5 5 7 10 11 12 14 15 17 17 18 19 20 21 21 20 20 22 22 21 21 19 19 22 24 19 18 16 15 14 13 12 12 13 10 12 14 12 13 10 10 11
5 4 6 8 10 11 12 14 16 17 18 19 19 20 21 22 23 24 22 22 24 25 23 23 24 18 23 22 17 20 17 15 12 19 14 12 15 15 13 14 12 11 11
3 4 7 9 8 10 13 14 16 18 17 17 19 20 21 22 23 25 23 24 25 25 22 23 22 21 23 20 19 19 16 14 12 11 11 11 13 12 10 12 12 11 10
3 4 7 9 9 11 13 15 16 16 15 16 16 17 19 21 22 24 25 24 24 23 23 25 25 25 33 26 21 22 18 16 13 12 12 13 12 14 12 12 10 8 10
4 4 8 8 9 11 13 14 16 14 14 15 15 16 16 16 14 23 24 25 26 23 27 24 24 30 38 27 17 19 19 15 13 13 13 11 12 12 14 10 11 9 9
4 6 7 7 9 11 13 15 16 14 15 15 15 15 18 13 22 24 26 24 25 25 23 20 21 26 34 35 31 26 23 19 16 12 12 14 16 15 14 13 11 10 8
4 6 7 7 10 11 12 14 15 14 15 16 15 16 19 18 28 22 22 17 18 20 18 17 22 20 27 23 25 26 22 21 21 21 19 18 17 18 16 15 14 14 11
5 4 6 7 8 10 11 13 13 12 12 13 14 16 18 16 30 16 2 9 7 12 17 26 28 25 23 24 22 21 21 19 19 15 18 18 17 20 21 19 20 18 8
5 4 6 6 8 8 11 13 14 12 11 13 13 15 19 18 34 36 23 14 10 5 6 17 19 21 26 28 22 21 20 19 14 14 18 18 16 22 20 12 11 11 7
4 5 4 5 5 7 10 13 12 12 11 11 14 14 22 18 36 42 29 8 10 10 15 16 29 9 22 27 22 19 16 15 15 12 5 13 16 18 20 17 14 14 10
3 6 5 5 5 7 8 8 9 11 11 13 13 13 16 23 25 37 35 15 13 10 13 13 14 27 7 15 10 15 15 13 9 14 12 9 12 14 13 13 13 13 13
3 4 6 6 5 6 8 8 10 11 12 13 14 14 13 19 33 34 35 31 28 14 14 11 15 26 30 22 10 13 8 12 9 10 11 10 10 11 12 13 13 12 12
2 2 6 6 5 6 7 9 9 10 11 11 12 13 15 13 15 34 32 33 29 14 14 20 28 31 28 22 27 20 16 5 3 8 10 11 9 9 10 12 12 12 10
2 1 2 5 6 5 6 6 7 8 9 11 12 13 12 14 15 15 12 13 22 17 18 17 24 26 29 21 18 17 10 9 9 7 2 2 7 7 9 9 11 10 8
3 2 3 2 5 5 3 3 5 9 13 10 8 8 11 13 15 23 23 14 12 18 15 14 15 14 16 15 12 14 12 11 10 8 7 6 6 4 3 6 8 8 11
3 3 1 2 3 4 4 4 10 14 20 23 25 19 9 23 27 27 26 30 30 26 15 15 13 14 15 12 13 12 12 15 10 9 8 8 7 6 6 5 4 4 9
4 3 1 3 2 3 3 4 5 8 17 20 24 25 26 26 27 27 27 27 32 22 14 13 14 13 12 12 10 11 11 11 10 9 9 8 8 8 6 6 6 5 5
4 4 3 2 2 3 3 3 3 4 6 7 16 20 25 27 28 29 27 19 15 17 12 12 12 11 12 11 11 10 10 10 10 9 10 9 8 7 7 8 8 6 4
2 3 2 2 1 3 3 3 3 4 5 5 6 13 18 23 26 28 27 12 11 12 11 12 11 10 10 9 9 9 11 9 10 9 9 9 9 8 8 7 7 12 10
2 5 5 2 1 2 2 3 3 3 3 4 5 5 7 11 11 11 11 11 10 10 10 10 10 9 10 10 10 10 9 11 10 9 9 9 8 7 7 7 7 6 6
2 0 6 3 2 2 2 3 3 3 3 4 4 7 19 7 8 7 8 8 8 8 8 8 8 8 8 8 9 9 9 9 9 9 9 9 8 8 8 7 6 7 6
2 2 2 3 2 3 2 3 3 2 3 3 3 6 16 6 6 6 7 7 6 6 5 6 6 6 6 7 8 8 8 7 7 8 8 8 8 8 7 7 6 6 5
3 3 3 3 2 3 4 3 3 3 3 3 3 4 4 4 4 4 4 4 5 5 4 4 4 4 5 5 5 4 6 7 6 5 7 7 7 7 7 6 7 7 7
3 3 3 2 1 3 3 3 2 4 4 3 3 3 4 3 4 4 4 3 3 4 4 4 4 4 4 4 4 5 6 6 4 3 4 6 7 8 6 7 7 7 7
3 3 3 2 3 3 4 3 3 3 3 3 3 3 3 3 3 4 4 4 3 2 2 3 3 4 6 9 9 9 10 16 10 4 3 5 7 8 6 5 5 7 7
3 4 3 3 3 3 3 3 3 3 3 3 3 3 2 3 3 3 3 4 4 4 7 5 3 5 5 5 7 12 15 15 11 11 5 4 4 5 4 5 6 5 6
Wind_Direction
278 267 275 283 280 282 284 287 285 284 281 278 273 268 262 256 249 244 243 246 245 240 231 241 246 245 260 192 182 181 190 181 175 190 185 183 178 175 177 177 175 184 194
255 270 282 279 281 283 289 290 288 286 281 273 268 262 259 256 252 247 243 242 241 243 239 233 236 243 250 201 180 177 187 186 165 173 173 179 184 186 170 175 181 190 190
278 279 289 280 280 288 293 294 294 287 281 278 271 261 254 248 246 245 241 239 238 240 243 243 246 255 266 199 178 175 177 175 169 162 169 175 183 175 165 183 180 190 195
278 288 287 283 288 295 300 300 299 291 292 288 284 281 270 252 239 239 237 236 233 232 227 231 231 237 257 177 174 174 173 170 168 163 167 173 175 180 178 176 185 182 188
279 287 284 284 294 301 303 303 304 300 305 300 301 300 297 282 249 233 230 233 236 227 230 222 224 231 247 176 168 172 168 167 170 164 164 172 174 172 180 177 191 187 190
277 284 286 294 302 305 307 309 311 310 318 315 310 316 313 295 284 282 233 225 235 241 228 219 232 242 230 173 173 171 171 168 172 169 166 174 176 175 178 177 182 184 188
257 276 290 294 300 307 307 315 318 315 318 320 317 325 320 308 306 298 248 223 221 228 226 228 233 246 178 170 174 171 176 177 173 173 176 181 174 175 172 179 186 188 190
266 276 293 291 295 308 313 317 314 312 320 322 320 324 322 317 337 351 147 217 230 248 261 245 262 201 171 168 175 175 183 187 187 182 188 183 179 175 177 179 182 188 189
283 290 290 285 299 310 317 318 316 323 325 327 327 330 334 329 356 28 30 13 350 226 212 197 169 161 170 173 174 176 180 190 192 192 174 174 174 179 176 164 176 171 185
307 293 274 283 291 307 311 314 314 325 334 331 340 338 342 340 12 26 24 10 269 52 53 52 46 61 158 177 179 177 178 186 183 187 163 177 172 179 174 177 171 178 180
288 302 311 304 291 294 305 310 319 336 345 351 345 345 350 360 16 24 25 20 349 37 50 39 44 41 86 155 165 174 176 162 172 181 179 182 181 178 185 188 181 182 185
252 307 315 326 321 324 321 323 338 346 359 2 352 359 6 6 13 18 23 24 20 30 41 41 51 50 50 52 69 66 100 160 173 178 186 195 183 181 186 187 185 190 195
232 27 323 328 339 337 342 337 350 353 1 12 2 5 8 5 15 15 13 21 29 35 46 46 49 46 41 43 44 49 54 61 180 184 191 197 196 194 177 190 188 186 187
125 66 329 333 349 350 4 353 347 4 9 13 19 10 8 13 15 6 8 16 16 31 28 36 45 49 50 37 38 30 32 49 55 20 23 206 188 193 188 181 189 181 186
138 122 22 25 334 341 1 352 352 1 27 16 37 31 12 13 20 25 26 16 28 33 36 39 42 36 40 28 28 32 21 24 47 30 26 27 31 16 209 193 195 188 201
164 109 74 20 348 358 352 352 13 30 20 28 20 30 35 34 27 30 34 36 35 39 44 40 40 39 43 28 23 30 23 29 11 46 23 36 27 20 13 13 11 204 198
123 123 86 69 33 15 12 6 -0 4 28 19 23 18 26 30 34 34 34 38 41 42 42 37 40 35 36 36 21 29 26 19 14 22 39 32 27 23 3 33 8 35 9
88 112 97 97 60 57 30 24 19 12 14 10 18 17 19 23 29 34 35 38 36 35 39 36 33 32 29 32 26 18 33 18 19 15 32 27 25 29 18 26 10 13 358
150 109 83 79 63 73 54 50 36 32 29 21 8 20 19 22 25 28 30 34 31 34 31 36 31 29 30 26 24 20 33 28 27 14 20 16 15 25 19 16 17 11 12
87 130 129 121 92 68 38 50 38 41 42 31 11 10 31 18 23 23 28 28 29 27 23 30 25 23 23 21 16 13 20 23 21 21 16 16 10 18 19 10 6 6 357
112 87 139 75 77 86 76 71 49 46 34 29 2 6 41 37 29 27 26 30 28 30 26 26 19 20 21 15 14 12 16 17 15 19 14 5 3 13 8 5 1 359 345
85 71 63 101 79 75 80 76 63 59 45 36 346 9 36 31 36 25 26 26 25 29 22 20 26 23 20 13 4 5 1 360 8 20 13 358 1 0 360 359 357 347 344
90 76 64 54 58 111 77 66 61 54 40 25 9 20 24 23 19 18 20 20 10 9 14 27 21 9 11 6 359 355 345 342 343 11 12 353 356 356 347 349 348 346 340
79 91 97 93 65 63 86 82 60 53 60 33 24 21 20 11 12 5 6 0 13 358 351 354 355 9 352 354 346 337 330 312 356 352 13 347 344 345 343 348 347 336 327
84 78 84 73 66 69 64 60 54 42 32 35 24 19 4 2 355 346 345 348 344 353 346 337 325 336 343 341 338 334 322 354 341 17 28 359 343 331 330 335 338 337 334
75 81 75 64 57 59 62 61 51 42 19 9 11 357 351 345 331 334 330 333 332 337 334 327 323 332 328 314 314 312 340 336 322 354 36 13 346 339 351 341 334 328 325